CZ-6A DEB

Satellite information

Favourite Embed

Satellite Type and Status

DEBRISIN ORBIT

Key statistics

Satellite CZ-6A DEB at a glance.

Uptime

495

Days in orbit

Revolutions

≈ 14.5

Per day

Orbit

LEO

Low Earth Orbit

Inclination

89.2

Latest

Satellite identification and parameters

Extended collection of information and parameters for CZ-6A DEB.

Object identification

Identified? True

Debris? True

Object name: CZ-6A DEB

International designator: 2024-140PZ

Object number (NORAD): 61131

Object ID (CCSDS): 61131

Country: PEOPLES REPUBLIC OF CHINA (PRC)

Current information (Y/N): Y

RCS size: SMALL

Orbital parameters

Period: 99.65 minutes

Inclination: 89.207 deg

SMA: 7119.951 km

Apoapsis: 777.041 km

Periapsis: 706.591 km

RAAN: 306.1745 deg

Eccentricy: 0.00494738

Argument of periapsis: 290.0431 deg

Mean anomaly: 69.5451 deg

Mean motion: 14.4506464 rev/day

Mean motion (dot): 0.00033396 rev/day2

B* drag term: 0.0093771068 1/REarth

Two-line elements (TLE)

Creation date: Dec. 14, 2025, 3:07 a.m.

Reference frame: TEME

Reference center: EARTH

Epoch: Dec. 13, 2025, 8:04 a.m. UTC

TLE line 0: 0 CZ-6A DEB

TLE line 1: 1 61131U 24140PZ 25347.33658166 .00033396 00000-0 93771-2 0 9995

TLE line 2: 2 61131 89.2070 306.1745 0049474 290.0431 69.5451 14.45064640 68742

Live tracking on map

Real-time ground track for satellite CZ-6A DEB.

In-orbit conjunctions

A list of the most updated potential collisions computed for object CZ-6A DEB.

Target Orbit TCA Probability of collision Miss distance Type
JD 3 LEO 2025-12-14 12:16:14 0.0004462811 202.0 (m) PAYLOAD
FENGYUN 1C DEB SSO 2025-01-26 07:08:06 0.0001538114 184.0 (m) DEBRIS
SL-8 DEB LEO 2025-01-20 04:04:34 0.000137045 938.0 (m) DEBRIS
NOAA 16 DEB SSO 2025-01-03 04:30:28 0.0004934299 102.0 (m) DEBRIS
THOR ABLESTAR DEB LEO 2024-12-23 19:23:11 0.0002418804 438.0 (m) DEBRIS

Associated space launch

18 Low Earth Orbit communication satellites with Ku, Q and V band payloads for the G60 constellation operated by Shanghai Spacecom Satellite Technology (SSST) with funding backed by the Shanghai local government. Initial constellation will consist of 1296 satellites by 2027 with long term plans to expand it to 12000 satellites.

CZ-6A DEB was lifted into orbit during the mission ‘Long March 6A | G60 Polar Group 01’, on board a Long March 6A space rocket.

The launch took place on Aug. 6, 2024, 6:42 a.m. from Launch Complex 9A.

For more information about the launch, click the button.

Launch to space Long March 6A | G60 Polar Group 01
Long March 6A | G60 Polar Group 01

Agency: N/A

Status: Launch Successful

Launch date: Aug. 6, 2024, 6:42 a.m. UTC

Rocket: Long March 6A

Launch pad: Launch Complex 9A

Location: Taiyuan Satellite Launch Center, People's Republic of China

...

Latest news about this satellite

News about space launch
Brightness of first Chinese broadband constellation satellites alarms astronomers

The first satellites of a Chinese broadband constellation are significantly brighter than those of Western systems, posing a new challenge for astronomers.

News about space launch
Chinese rocket stage breaks up into cloud of more than 700 pieces of space debris

HELSINKI — A Chinese Long March 6A rocket’s upper stage has fragmented into a cloud of over 700 pieces of space debris, adding to concerns about long-term orbital safety. China […]

News about space launch
China's Thousand Sails Megaconstellation Kicks Off with Dangerous Debris Field

China's Thousand Sails Megaconstellation Kicks Off with Dangerous Debris Field


Newsletter sign-up

Weekly statistics, charts and insights to help you stay on top of the space industry.